Flag for U.S.A. Weather past 2 weeks in Vevay, Indiana, U.S.A.

Now
60 °F

Passing clouds.


Feels Like: 60 °F
Forecast: 39 / 61 °F
Wind: 8 mph from Northwest

Location: Cincinnati / Northern Kentucky International Airport


UV Index: 5 (Moderate)

Visibility: 10 mi


Pressure: 30.06 "Hg

Humidity: 36%

Dew point: 33 °F

Location of VevayLocation

Historic Weather in Vevay

°F

Vevay temperature yesterday

Maximum temperature yesterday: 69 °F (at 12:52 PM)
Minimum temperature yesterday: 47 °F (at 11:52 PM)
Average temperature yesterday: 61 °F

Past Weeks' High & Low Weather Summary

 TemperatureHumidityPressure
High80 °F (Apr 13, 3:52 PM)100% (Apr 15, 12:52 AM)30.42 "Hg (Apr 15, 12:52 AM)
Low28 °F (Apr 16, 4:52 AM)20% (Apr 20, 7:52 PM)29.65 "Hg (Apr 14, 5:52 PM)
Average57 °F53%30.04 "Hg
* Reported Apr 8 2:52 PM — Apr 23 2:52 PM, Vevay, Weather by CustomWeather, © 2014

Note: Actual official high and low records may vary slightly from our data, if they occured in-between our weather recording intervals... More about our weather records

Advertising

Historic Weather Conditions — Data for Previous 24 hours

 ConditionsComfort  
Time TempWeatherWind HumidityBarometerVisibility
2:52 PM
Apr 23
58 °FPassing clouds.8 mph35%30.07 "Hg10 mi
1:52 PM56 °FSunny.3 mph39%30.08 "Hg10 mi
12:52 PM53 °FSunny.No wind41%30.10 "Hg10 mi
11:52 AM51 °FSunny.5 mph44%30.10 "Hg10 mi
10:52 AM48 °FSunny.5 mph52%30.10 "Hg10 mi
9:52 AM45 °FSunny.7 mph56%30.09 "Hg10 mi
8:52 AM42 °FSunny.12 mph62%30.08 "Hg10 mi
7:52 AM40 °FSunny.9 mph70%30.06 "Hg10 mi
6:52 AM39 °FClear.12 mph73%30.03 "Hg10 mi
5:52 AM41 °FClear.10 mph67%30.01 "Hg10 mi
4:52 AM41 °FClear.7 mph67%29.99 "Hg10 mi
3:52 AM42 °FClear.7 mph65%29.98 "Hg10 mi
2:52 AM42 °FClear.6 mph68%29.98 "Hg10 mi
1:52 AM44 °FClear.6 mph60%29.97 "Hg10 mi
12:52 AM46 °FClear.5 mph56%29.96 "Hg10 mi
11:52 PM
Apr 22
47 °FClear.10 mph52%29.96 "Hg10 mi
10:52 PM49 °FClear.13 mph48%29.96 "Hg10 mi
9:52 PM52 °FClear.17 mph45%29.94 "Hg10 mi
8:52 PM55 °FPassing clouds.16 mph42%29.90 "Hg10 mi
7:52 PM58 °FPassing clouds.16 mph38%29.87 "Hg10 mi
6:52 PM62 °FPassing clouds.18 mph34%29.85 "Hg10 mi
5:52 PM65 °FPassing clouds.21 mph29%29.83 "Hg10 mi
4:52 PM66 °FPassing clouds.17 mph28%29.81 "Hg10 mi
Weather by CustomWeather, © 2014

See weather overview